Location: *
(6.0000°S, 32.3997°W)
Time: 19:53:09
(UTC+00:00)

Cosmos 1953 - Pass Details

Date: 01 April 2020
Orbit: 540 x 557 km, 82.5° (Epoch: 27 May)

Event Time Altitude Azimuth Distance (km) Brightness Sun altitude
Rises 21:30:54 0° 182° (S) 2,705 5.9 -19.8°
Reaches altitude 10° 21:33:04 10° 181° (S) 1,807 4.9 -20.3°
Maximum altitude 21:37:02 80° 95° (E) 551 2.1 -21.3°
Drops below altitude 10° 21:40:58 10° 7° (N) 1,790 4.9 -22.3°
Sets 21:43:07 0° 6° (N) 2,677 5.8 -22.8°
